Location: Joplin
(37.0842°N, 94.5131°W)
Time: 00:26:40
(UTC-05:00)

OTV 5 (USA 277) - Visible Passes

Search period start: 19 August 2018 00:00
Search period end: 29 August 2018 00:00
Orbit: 316 x 318 km, 54.5° (Epoch: 18 August)

Date Brightness Start Highest point End Pass type
(mag) Time Alt. Az. Time Alt. Az. Time Alt. Az.
19 Aug ? 21:51:13 10° WNW 21:52:39 13° NNW 21:54:04 10° N visible
20 Aug ? 20:30:03 10° WSW 20:32:43 53° NW 20:35:22 10° NE visible
21 Aug ? 20:45:19 10° W 20:47:24 19° NW 20:49:29 10° NNE visible
